Torna al catalogo

CZ-6A DEB

AttivoSSO
NORAD 55868·DEBRIS·🇨🇳 China

Lanciato Nov 11, 2022 da Taiyuan Satellite Launch Center

Loading…

Prossimi Passaggi (prossime 24 ore)

TLE

AggiornatoSource: Space-Track

Epoca: Sep 14, 2026, 14:43 UTC

1 55868U 22151ZQ  26257.61334065  .00006208  00000-0  11724-2 0  9996
2 55868  98.5854 309.3364 0065223  37.5438 323.0291 14.63445221122040

Traccia CZ-6A DEB in tempo reale con AllMySat

Download on the App Store